Total_Precipitation_Accumulation
0.32 0.20 0.24 0.23 0.15 0.12 0.12 0.14 0.18 0.19 0.18 0.19 0.20 0.20 0.21 0.19 0.17 0.16 0.16 0.16 0.17 0.22 0.26 0.32 0.35 0.41 0.46 0.44 0.33 0.22 0.18 0.16 0.13 0.13 0.15 0.19 0.24 0.27 0.34 0.30 0.32 0.31 0.28
0.23 0.18 0.23 0.20 0.17 0.15 0.12 0.13 0.15 0.15 0.16 0.16 0.15 0.15 0.16 0.17 0.17 0.17 0.18 0.19 0.23 0.27 0.26 0.27 0.30 0.34 0.35 0.31 0.24 0.17 0.13 0.13 0.16 0.21 0.27 0.34 0.44 0.46 0.53 0.47 0.47 0.48 0.31
0.19 0.20 0.21 0.18 0.17 0.16 0.14 0.14 0.14 0.15 0.18 0.19 0.18 0.16 0.14 0.13 0.13 0.14 0.15 0.20 0.27 0.31 0.30 0.27 0.25 0.26 0.26 0.22 0.17 0.14 0.14 0.19 0.25 0.37 0.59 0.68 0.69 0.68 0.67 0.60 0.55 0.43 0.30
0.21 0.25 0.20 0.20 0.20 0.19 0.17 0.19 0.20 0.20 0.20 0.23 0.23 0.21 0.18 0.15 0.14 0.16 0.18 0.21 0.28 0.32 0.29 0.24 0.21 0.20 0.18 0.14 0.13 0.13 0.18 0.28 0.39 0.56 0.92 0.85 0.76 0.76 0.67 0.60 0.59 0.54 0.44
0.27 0.25 0.20 0.17 0.20 0.23 0.24 0.25 0.26 0.25 0.27 0.29 0.32 0.32 0.26 0.19 0.17 0.21 0.23 0.24 0.28 0.33 0.34 0.28 0.21 0.16 0.13 0.13 0.14 0.14 0.19 0.30 0.52 0.82 1.18 1.29 1.22 1.04 0.77 0.64 0.64 0.62 0.60
0.33 0.34 0.26 0.24 0.26 0.31 0.31 0.30 0.31 0.32 0.34 0.38 0.41 0.38 0.31 0.24 0.22 0.26 0.30 0.32 0.34 0.37 0.41 0.35 0.31 0.22 0.17 0.15 0.16 0.19 0.28 0.45 0.59 0.89 1.23 1.50 1.42 1.26 0.96 0.77 0.67 0.71 0.70
0.42 0.44 0.38 0.33 0.31 0.33 0.33 0.33 0.33 0.33 0.35 0.42 0.46 0.41 0.34 0.28 0.26 0.29 0.36 0.38 0.42 0.45 0.44 0.39 0.34 0.27 0.25 0.23 0.24 0.30 0.42 0.61 0.70 0.96 1.25 1.31 1.35 1.27 1.10 0.99 0.79 0.65 0.64
0.45 0.43 0.37 0.34 0.31 0.36 0.40 0.35 0.34 0.36 0.39 0.47 0.51 0.46 0.38 0.32 0.35 0.41 0.44 0.48 0.52 0.48 0.42 0.40 0.36 0.32 0.33 0.35 0.37 0.43 0.52 0.61 0.58 0.83 1.08 1.22 1.10 1.07 1.19 1.17 0.96 0.76 0.65
0.53 0.50 0.48 0.49 0.44 0.42 0.42 0.39 0.40 0.40 0.44 0.49 0.52 0.56 0.48 0.41 0.48 0.55 0.56 0.57 0.60 0.53 0.46 0.44 0.43 0.38 0.41 0.47 0.45 0.45 0.51 0.56 0.52 0.75 0.96 1.30 1.08 1.17 1.33 1.18 0.98 0.87 0.76
1.03 1.08 0.88 0.82 0.72 0.56 0.45 0.44 0.45 0.45 0.49 0.55 0.53 0.52 0.51 0.49 0.53 0.56 0.54 0.55 0.54 0.48 0.44 0.45 0.46 0.41 0.39 0.39 0.38 0.41 0.46 0.42 0.40 0.61 1.07 1.17 1.17 1.41 1.51 1.32 1.12 0.99 0.91
1.55 1.64 1.31 0.96 0.80 0.80 0.65 0.52 0.56 0.50 0.50 0.52 0.51 0.51 0.57 0.72 0.84 0.84 0.64 0.62 0.59 0.54 0.52 0.52 0.47 0.40 0.36 0.36 0.44 0.51 0.49 0.38 0.54 0.79 1.05 1.22 1.35 1.66 1.75 1.54 1.30 1.16 1.04
1.87 1.80 1.64 1.20 1.23 1.35 1.04 0.86 0.78 0.67 0.64 0.61 0.71 0.68 0.82 1.18 1.28 1.02 0.99 0.84 0.79 0.72 0.68 0.67 0.66 0.56 0.47 0.49 0.61 0.61 0.48 0.49 0.77 0.98 1.16 1.43 1.67 1.87 1.81 1.57 1.39 1.28 1.21
2.06 1.67 1.40 1.30 1.22 1.36 1.33 1.21 1.11 1.06 1.14 1.15 1.17 1.16 1.33 1.42 1.26 1.06 1.22 1.10 1.03 0.93 0.96 1.01 0.86 0.73 0.74 0.82 0.87 0.78 0.71 0.78 0.95 1.07 1.28 1.60 1.78 1.94 1.97 1.75 1.53 1.43 1.41
1.92 1.72 1.59 1.58 1.48 1.50 1.71 1.71 1.61 1.59 1.51 1.40 1.41 1.36 1.59 1.72 1.64 1.64 1.69 1.60 1.66 1.61 1.55 1.39 1.21 1.05 0.98 0.93 0.90 0.94 1.00 1.02 1.11 1.23 1.51 1.67 1.72 1.78 1.88 1.87 1.79 1.69 1.59
2.13 1.89 1.76 1.83 1.82 1.75 2.01 2.14 1.97 1.94 1.77 1.64 1.61 1.64 1.74 1.80 1.87 2.03 2.04 2.13 2.04 1.92 1.72 1.57 1.35 1.34 1.24 1.12 1.06 1.03 1.14 1.28 1.37 1.52 1.59 1.69 1.65 1.64 1.82 2.00 2.03 2.00 1.86
2.46 2.16 1.91 1.91 1.82 1.80 1.93 2.08 2.10 2.02 2.06 2.02 1.95 1.89 1.90 2.02 2.20 2.24 2.27 2.23 2.09 1.92 1.88 1.83 1.67 1.65 1.55 1.45 1.30 1.30 1.31 1.35 1.49 1.59 1.68 1.81 1.56 1.47 1.70 1.97 2.14 2.19 2.21
2.67 2.59 2.30 2.18 2.12 2.12 2.07 2.04 2.01 2.07 2.26 2.22 2.26 2.29 2.13 2.06 2.16 2.25 2.37 2.32 2.20 2.10 2.05 1.95 1.94 1.89 1.76 1.68 1.63 1.60 1.56 1.51 1.49 1.54 1.72 1.87 1.82 1.74 1.79 1.88 2.01 2.13 2.24
3.14 3.03 2.52 2.16 2.30 2.41 2.50 2.48 2.50 2.48 2.60 2.53 2.35 2.47 2.40 2.40 2.33 2.34 2.33 2.23 2.15 2.09 2.23 2.29 2.24 2.20 2.07 1.98 1.93 1.78 1.74 1.73 1.61 1.60 1.67 1.75 1.98 2.06 2.04 1.88 1.85 1.96 2.13
3.76 3.47 2.78 2.48 2.53 2.65 2.70 2.86 3.05 3.11 3.08 2.97 2.81 2.81 2.69 2.74 2.69 2.65 2.71 2.61 2.46 2.48 2.48 2.29 2.34 2.41 2.44 2.30 1.99 1.86 1.74 1.76 1.71 1.64 1.67 1.66 1.83 2.04 2.08 1.98 1.92 1.91 2.05
3.94 3.73 3.20 2.93 3.07 3.00 2.94 3.13 3.28 3.32 3.30 3.35 3.38 3.37 3.17 3.06 3.10 3.17 3.22 3.12 2.91 2.85 2.85 2.85 2.78 2.55 2.38 2.27 2.02 1.99 1.88 1.75 1.72 1.63 1.56 1.60 1.65 1.62 1.72 1.76 1.87 1.85 1.88
3.21 3.20 3.26 3.24 3.29 3.34 3.27 3.30 3.50 3.67 3.71 3.65 3.74 3.79 3.64 3.54 3.58 3.72 3.72 3.66 3.41 3.21 3.05 2.98 2.90 2.69 2.43 2.23 2.21 2.13 1.92 1.72 1.70 1.63 1.57 1.57 1.46 1.42 1.52 1.66 1.64 1.60 1.64
2.98 3.10 3.21 3.16 3.35 3.59 3.92 4.33 4.63 4.81 4.74 4.59 4.53 4.43 4.25 4.12 4.05 4.00 3.99 3.79 3.51 3.34 3.11 2.92 2.83 2.69 2.48 2.34 2.29 2.35 2.10 1.92 1.67 1.51 1.54 1.50 1.42 1.37 1.34 1.33 1.41 1.44 1.43
2.61 2.84 3.00 3.24 3.68 4.12 4.64 5.36 5.76 5.61 5.26 5.08 4.81 4.70 4.49 4.22 4.12 4.07 3.83 3.63 3.40 3.19 3.04 2.85 2.76 2.68 2.47 2.36 2.32 2.44 2.27 2.06 1.83 1.68 1.52 1.41 1.40 1.41 1.36 1.29 1.29 1.39 1.41
2.33 2.71 3.03 3.43 4.00 4.59 5.06 5.56 5.84 5.80 5.56 5.31 4.88 4.51 4.15 3.80 3.57 3.43 3.32 3.10 2.98 2.84 2.71 2.54 2.51 2.46 2.35 2.18 2.13 2.02 1.93 1.84 1.80 1.68 1.54 1.40 1.37 1.40 1.36 1.28 1.27 1.32 1.39
2.17 2.58 2.97 3.36 3.97 4.52 5.03 5.41 5.65 5.70 5.55 5.21 4.57 3.97 3.59 3.26 2.99 2.73 2.52 2.41 2.39 2.31 2.13 1.97 1.93 1.91 1.87 1.82 1.81 1.73 1.67 1.62 1.61 1.55 1.52 1.45 1.39 1.30 1.23 1.21 1.18 1.20 1.25
1.94 2.42 2.77 3.07 3.73 4.40 4.96 5.34 5.59 5.61 5.31 4.72 4.09 3.55 3.20 2.94 2.67 2.41 2.24 2.06 1.97 1.85 1.70 1.54 1.45 1.44 1.50 1.53 1.54 1.52 1.43 1.40 1.40 1.44 1.40 1.34 1.30 1.24 1.19 1.15 1.12 1.12 1.14